Weather History for Kirksville, MO

Change the Weather History Date:

Sunday, February 3, 2013

  Actual Average Record
Temperature  
Mean Temperature 28 °F 27 °F  
Max Temperature 34 °F 37 °F 67 °F (1992)
Min Temperature 22 °F 18 °F -17 °F (2011)
Degree Days  
Heating Degree Days 37 38  
Month to date heating degree days 129 114  
Since 1 July heating degree days 3505 3661  
Cooling Degree Days 0 0  
Month to date cooling degree days 0 0  
Year to date cooling degree days 0 0  
Moisture  
Dew Point 18 °F    
Average Humidity 72    
Maximum Humidity 100    
Minimum Humidity 43    
Precipitation  
Precipitation 0.00 in 0.06 in 1.04 in (1943)
Month to date precipitation 0.11 0.16  
Year to date precipitation 2.21 1.43  
Sea Level Pressure  
Sea Level Pressure 30.11 in    
Wind  
Wind Speed 10 mph (West)    
Max Wind Speed 23 mph    
Max Gust Speed 32 mph    
Visibility 10 miles    
Events      
T = Trace of Precipitation, MM = Missing Value Source: NWS Daily Summary

Daily Weather History Graph

Daily Weather History Graph

Search for Another Location

Airport:

Trip Planner

Search our weather history database for the weather conditions in past years. The results will help you decide how hot, cold, wet, or windy it might be!

Date:

Astronomy

Feb. 03, 2013 Rise Set
Actual Time 7:16 AM CST 5:31 PM CST
Civil Twilight 6:48 AM CST 6:00 PM CST
Nautical Twilight 6:15 AM CST 6:32 PM CST
Astronomical Twilight 5:44 AM CST 7:04 PM CST
Moon 12:44 AM CST (2/3) 11:09 AM CST (2/3)
Length of Visible Light 11h 12m
Length of Day
10h 15m
Waning Gibbous, 48% of the Moon is Illuminated
Feb 3
Waning Gibbous
Feb 10
New
Feb 17
First Quarter
Feb 25
Full
Mar 4
Last Quarter

Hourly Weather History & Observations

Time (CST) Temp. Windchill Dew Point Humidity Pressure Visibility Wind Dir Wind Speed Gust Speed Precip Events Conditions
12:14 AM 26.6 °F 21.2 °F 24.8 °F 93% 30.02 in 5.0 mi WSW 4.6 mph - N/A   Mostly Cloudy
12:55 AM 26.1 °F 16.8 °F 25.0 °F 96% 30.07 in 7.0 mi West 9.2 mph - N/A   Clear
1:55 AM 28.9 °F 19.2 °F 25.0 °F 85% 30.08 in 10.0 mi West 11.5 mph - N/A   Scattered Clouds
2:55 AM 28.0 °F 18.1 °F 24.1 °F 85% 30.08 in 10.0 mi West 11.5 mph - N/A   Scattered Clouds
3:41 AM 30.2 °F 19.3 °F 24.8 °F 80% 30.04 in 10.0 mi WNW 15.0 mph 21.9 mph N/A   Mostly Cloudy
3:55 AM 30.0 °F 18.7 °F 24.1 °F 79% 30.09 in 10.0 mi WNW 16.1 mph - N/A   Overcast
4:43 AM 26.6 °F 13.4 °F 17.6 °F 69% 30.07 in 10.0 mi NW 18.4 mph 31.1 mph N/A   Scattered Clouds
4:55 AM 25.0 °F 11.3 °F 18.0 °F 75% 30.12 in 10.0 mi NW 18.4 mph 31.1 mph N/A   Scattered Clouds
5:02 AM 24.8 °F 10.7 °F 17.6 °F 74% 30.08 in 10.0 mi NW 19.6 mph 29.9 mph N/A   Mostly Cloudy
5:55 AM 25.0 °F 11.7 °F 17.1 °F 72% 30.14 in 10.0 mi WNW 17.3 mph 23.0 mph N/A   Overcast
6:55 AM 24.1 °F 12.5 °F 16.0 °F 71% 30.18 in 10.0 mi NW 12.7 mph 20.7 mph N/A   Overcast
7:35 AM 21.2 °F 10.1 °F 15.8 °F 80% 30.15 in 10.0 mi NW 10.4 mph - N/A   Scattered Clouds
7:55 AM 21.9 °F 11.7 °F 15.1 °F 75% 30.22 in 10.0 mi NW 9.2 mph 18.4 mph N/A   Partly Cloudy
8:55 AM 23.0 °F 11.7 °F 12.9 °F 65% 30.24 in 10.0 mi WNW 11.5 mph 23.0 mph N/A   Clear
9:55 AM 24.1 °F 12.5 °F 14.0 °F 65% 30.25 in 10.0 mi WNW 12.7 mph 20.7 mph N/A   Clear
10:55 AM 27.0 °F 17.3 °F 15.1 °F 61% 30.26 in 10.0 mi WNW 10.4 mph - N/A   Clear
11:55 AM 30.0 °F 22.4 °F 15.1 °F 54% 30.23 in 10.0 mi West 8.1 mph - N/A   Clear
12:55 PM 30.9 °F 24.3 °F 15.1 °F 52% 30.21 in 10.0 mi West 6.9 mph - N/A   Clear
1:55 PM 33.1 °F 26.9 °F 14.0 °F 46% 30.18 in 10.0 mi WSW 6.9 mph - N/A   Clear
2:55 PM 33.1 °F - 15.1 °F 48% 30.14 in 10.0 mi North - - N/A   Clear
3:55 PM 33.1 °F 25.5 °F 15.1 °F 48% 30.11 in 10.0 mi South 9.2 mph - N/A   Clear
4:55 PM 30.9 °F 24.3 °F 16.0 °F 54% 30.09 in 10.0 mi South 6.9 mph - N/A   Clear
5:55 PM 26.1 °F 17.6 °F 18.0 °F 71% 30.08 in 10.0 mi South 8.1 mph - N/A   Clear
6:55 PM 24.1 °F 18.2 °F 18.0 °F 77% 30.06 in 10.0 mi SSE 4.6 mph - N/A   Clear
7:55 PM 24.1 °F 14.4 °F 18.0 °F 77% 30.04 in 10.0 mi SSE 9.2 mph - N/A   Clear
8:55 PM 23.0 °F 14.7 °F 17.1 °F 78% 30.02 in 10.0 mi South 6.9 mph - N/A   Clear
9:55 PM 24.1 °F 17.0 °F 17.1 °F 75% 30.00 in 10.0 mi South 5.8 mph - N/A   Clear
10:55 PM 23.0 °F 14.7 °F 17.1 °F 78% 29.97 in 10.0 mi South 6.9 mph - N/A   Clear
11:55 PM 27.0 °F 19.5 °F 18.0 °F 69% 29.93 in 10.0 mi South 6.9 mph - N/A   Clear